sat.trackr.live / text

‹ back to catalog

STARLINK-31468

NORAD 58998 · 2024-036A

PAYLOAD ACTIVE UNKNOWN

§ Identity

Operator
Country
US
Launch date
2024-02-23
Launch site
AFWTR
Launch vehicle
Mass (kg)
RCS (m²)

Purposes: comms

External: N2YO · Heavens-Above · Gunter

§ Orbital elements

Epoch: 2026-09-20T23:24:44.027712Z

Period
93.85 min
Inclination
53.1587°
Eccentricity
0.0001437
Mean motion
15.34392591 rev/d
Perigee alt
461.7 km
Apogee alt
463.7 km
Semi-major
6,840.9 km
B*
7.0544e-5
RAAN
249.5494°
Arg perigee
86.4324°
Mean anomaly
273.6843°
Rev number
14,525

§ Raw data

STARLINK-314681 58998U 24036A   26263.97550958  .00002007  00000+0  70544-4 0  99932 58998  53.1587 249.5494 0001437  86.4324 273.6843 15.34392591145251

JSON: /api/v1/satellites/58998 · /tle

For live sub-satellite position, see the globe view (requires WebGL).

§ Visibility from observer

Set your observer location to see the next 7 days of passes ≥ 10°. The values pass through the URL so the page stays shareable.

No JS? Fill the form by hand. The geolocation button needs JavaScript.